When you browse on this site, cookies collect data to enhance your experience and personalize the content and advertising you see.
Visit our Privacy Policy to learn more. By continuing to use the site, you agree to this use of cookies and data.
  • In Hungary
  • List of Countries
  • For 7 days
  • Water Temperature
  • Weather Map
  • News
  • Weather Widgets
  • user-avatar
    Login

    Hourly Weather Loginovka

    Today, 22 February, Saturday

    Time Temperature Precipitation Wind Pressure Humidity
    00:00 -2°C° 0 mm 2 mps 765 mmHg 91%
    01:00 -2°C° 0 mm 2 mps 765 mmHg 91%
    02:00 -2°C° 0 mm 2 mps 766 mmHg 91%
    03:00 -3°C° 0 mm 2 mps 766 mmHg 87%
    04:00 -3°C° 0 mm 2 mps 766 mmHg 88%
    05:00 -4°C° 0 mm 2 mps 766 mmHg 90%
    06:00 -4°C° 0 mm 2 mps 766 mmHg 92%
    07:00 -5°C° 0 mm 2 mps 766 mmHg 93%
    08:00 -5°C° 0 mm 2 mps 767 mmHg 93%
    09:00 -5°C° 0 mm 2 mps 767 mmHg 93%
    10:00 -5°C° 0 mm 2 mps 767 mmHg 92%
    11:00 -4°C° 0 mm 2 mps 767 mmHg 92%
    12:00 -5°C° 0 mm 3 mps 767 mmHg 91%
    13:00 -4°C° 0 mm 2 mps 767 mmHg 92%
    14:00 -3°C° 0 mm 2 mps 767 mmHg 92%
    15:00 -3°C° 0 mm 2 mps 767 mmHg 92%
    16:00 -4°C° 0 mm 2 mps 767 mmHg 92%
    17:00 -5°C° 0 mm 2 mps 767 mmHg 92%
    18:00 -6°C° 0 mm 2 mps 767 mmHg 92%
    19:00 -7°C° 0 mm 2 mps 767 mmHg 92%
    20:00 -7°C° 0 mm 2 mps 767 mmHg 92%
    21:00 -7°C° 0 mm 2 mps 767 mmHg 92%
    22:00 -7°C° 0 mm 2 mps 767 mmHg 93%
    23:00 -7°C° 0 mm 2 mps 766 mmHg 94%

    Tomorrow, 23 February, Sunday

    Time Temperature Precipitation Wind Pressure Humidity
    00:00 -7°C° 0 mm 2 mps 766 mmHg 95%
    01:00 -6°C° 0 mm 2 mps 765 mmHg 95%
    02:00 -6°C° 0 mm 2 mps 765 mmHg 95%
    03:00 -6°C° 0 mm 2 mps 765 mmHg 95%
    04:00 -5°C° 0 mm 2 mps 764 mmHg 95%
    05:00 -5°C° 0 mm 2 mps 764 mmHg 95%
    06:00 -6°C° 0 mm 3 mps 763 mmHg 95%
    07:00 -5°C° 0 mm 3 mps 763 mmHg 94%
    08:00 -4°C° 0 mm 4 mps 762 mmHg 93%
    09:00 -5°C° 0 mm 5 mps 762 mmHg 92%
    10:00 -4°C° 0.1 mm 5 mps 761 mmHg 94%
    11:00 -4°C° 0.1 mm 5 mps 760 mmHg 96%
    12:00 -3°C° 0.1 mm 6 mps 759 mmHg 97%
    13:00 -3°C° 0 mm 6 mps 758 mmHg 94%
    14:00 -1°C° 0 mm 5 mps 758 mmHg 90%
    15:00 -1°C° 0 mm 5 mps 757 mmHg 86%
    16:00 -2°C° 0 mm 5 mps 756 mmHg 88%
    17:00 -2°C° 0 mm 5 mps 755 mmHg 89%
    18:00 -2°C° 0 mm 5 mps 754 mmHg 91%
    19:00 -3°C° 0.1 mm 6 mps 754 mmHg 93%
    20:00 -2°C° 0.1 mm 6 mps 753 mmHg 96%
    21:00 -2°C° 0.1 mm 7 mps 753 mmHg 98%
    22:00 -2°C° 0.1 mm 7 mps 752 mmHg 97%
    23:00 -2°C° 0.1 mm 7 mps 751 mmHg 96%

    Day after tomorrow, 24 February, Monday

    Time Temperature Precipitation Wind Pressure Humidity
    00:00 -2°C° 0.1 mm 7 mps 750 mmHg 94%
    01:00 -2°C° 0.3 mm 8 mps 750 mmHg 95%
    02:00 -4°C° 0.3 mm 8 mps 749 mmHg 96%
    03:00 -4°C° 0.3 mm 9 mps 748 mmHg 96%
    04:00 -4°C° 0.4 mm 8 mps 748 mmHg 97%
    05:00 -2°C° 0.4 mm 8 mps 748 mmHg 97%
    06:00 -2°C° 0.4 mm 8 mps 747 mmHg 98%
    07:00 -2°C° 0 mm 7 mps 748 mmHg 94%
    08:00 -2°C° 0 mm 6 mps 748 mmHg 91%
    09:00 -2°C° 0 mm 6 mps 748 mmHg 87%
    10:00 -1°C° 0 mm 5 mps 749 mmHg 90%
    11:00 -1°C° 0 mm 5 mps 749 mmHg 92%
    12:00 -1°C° 0 mm 5 mps 749 mmHg 94%
    13:00 -1°C° 0 mm 4 mps 749 mmHg 95%
    14:00 0°C° 0 mm 3 mps 749 mmHg 96%
    15:00 0°C° 0 mm 3 mps 749 mmHg 96%
    16:00 -1°C° 0.1 mm 4 mps 749 mmHg 96%
    17:00 -1°C° 0.1 mm 4 mps 748 mmHg 96%
    18:00 -1°C° 0.1 mm 5 mps 748 mmHg 95%
    19:00 -1°C° 0.3 mm 5 mps 748 mmHg 96%
    20:00 -1°C° 0.3 mm 5 mps 748 mmHg 97%
    21:00 -2°C° 0.3 mm 6 mps 747 mmHg 98%
    22:00 -1°C° 0.5 mm 6 mps 747 mmHg 98%
    23:00 -1°C° 0.5 mm 6 mps 746 mmHg 98%

    25 February, Tuesday

    Time Temperature Precipitation Wind Pressure Humidity
    00:00 -1°C° 0.5 mm 7 mps 746 mmHg 98%
    01:00 -1°C° 0.7 mm 7 mps 746 mmHg 98%
    02:00 -1°C° 0.7 mm 8 mps 745 mmHg 97%
    03:00 -1°C° 0.7 mm 8 mps 745 mmHg 97%
    04:00 -1°C° 0.7 mm 8 mps 744 mmHg 97%
    05:00 -1°C° 0.7 mm 7 mps 744 mmHg 97%
    06:00 -1°C° 0.7 mm 7 mps 743 mmHg 97%
    07:00 -1°C° 0.5 mm 6 mps 743 mmHg 97%
    08:00 -1°C° 0.5 mm 6 mps 743 mmHg 97%
    09:00 0°C° 0.5 mm 5 mps 743 mmHg 97%
    10:00 0°C° 0.1 mm 5 mps 743 mmHg 98%
    11:00 0°C° 0.1 mm 4 mps 743 mmHg 98%
    12:00 -1°C° 0.1 mm 4 mps 743 mmHg 99%
    13:00 -2°C° 0.3 mm 6 mps 744 mmHg 98%
    14:00 -2°C° 0.3 mm 8 mps 744 mmHg 97%
    15:00 -4°C° 0.3 mm 9 mps 745 mmHg 97%
    16:00 -4°C° 0.1 mm 9 mps 746 mmHg 90%
    17:00 -5°C° 0.1 mm 10 mps 747 mmHg 84%
    18:00 -5°C° 0.1 mm 10 mps 748 mmHg 78%
    19:00 -6°C° 0 mm 9 mps 749 mmHg 78%
    20:00 -6°C° 0 mm 8 mps 751 mmHg 79%
    21:00 -6°C° 0 mm 7 mps 752 mmHg 79%
    22:00 -6°C° 0 mm 6 mps 752 mmHg 81%
    23:00 -6°C° 0 mm 5 mps 753 mmHg 82%

    26 February, Wednesday

    Time Temperature Precipitation Wind Pressure Humidity
    00:00 -5°C° 0 mm 4 mps 753 mmHg 84%
    01:00 -5°C° 0 mm 4 mps 754 mmHg 85%
    02:00 -5°C° 0 mm 3 mps 754 mmHg 86%
    03:00 -5°C° 0 mm 3 mps 754 mmHg 87%
    04:00 -5°C° 0 mm 3 mps 754 mmHg 86%
    05:00 -5°C° 0 mm 4 mps 754 mmHg 85%
    06:00 -5°C° 0 mm 4 mps 754 mmHg 84%
    07:00 -5°C° 0 mm 5 mps 754 mmHg 84%
    08:00 -5°C° 0 mm 5 mps 754 mmHg 84%
    09:00 -4°C° 0 mm 6 mps 754 mmHg 84%
    10:00 -3°C° 0 mm 6 mps 754 mmHg 85%
    11:00 -2°C° 0 mm 6 mps 754 mmHg 86%
    12:00 -2°C° 0 mm 6 mps 754 mmHg 87%
    13:00 -1°C° 0 mm 5 mps 754 mmHg 89%
    14:00 0°C° 0 mm 5 mps 754 mmHg 90%
    15:00 0°C° 0 mm 5 mps 754 mmHg 91%
    16:00 -1°C° 0 mm 5 mps 754 mmHg 91%
    17:00 -1°C° 0 mm 5 mps 754 mmHg 90%
    18:00 -1°C° 0 mm 5 mps 754 mmHg 90%
    19:00 -1°C° 0 mm 5 mps 754 mmHg 89%
    20:00 -1°C° 0 mm 5 mps 754 mmHg 88%
    21:00 -1°C° 0 mm 5 mps 755 mmHg 88%
    22:00 -1°C° 0 mm 5 mps 755 mmHg 87%
    23:00 -1°C° 0 mm 5 mps 755 mmHg 87%

    27 February, Thursday

    Time Temperature Precipitation Wind Pressure Humidity
    00:00 -1°C° 0 mm 5 mps 755 mmHg 86%
    01:00 -1°C° 0 mm 5 mps 755 mmHg 86%
    02:00 -1°C° 0 mm 4 mps 755 mmHg 86%
    03:00 -1°C° 0 mm 4 mps 755 mmHg 86%
    04:00 -1°C° 0 mm 4 mps 755 mmHg 83%
    05:00 -1°C° 0 mm 5 mps 755 mmHg 80%
    06:00 -1°C° 0 mm 5 mps 755 mmHg 77%
    07:00 -1°C° 0 mm 5 mps 755 mmHg 73%
    08:00 -2°C° 0 mm 6 mps 756 mmHg 70%
    09:00 -2°C° 0 mm 6 mps 756 mmHg 67%
    10:00 -1°C° 0 mm 6 mps 756 mmHg 68%
    11:00 +1°C° 0 mm 6 mps 756 mmHg 69%
    12:00 +1°C° 0 mm 6 mps 756 mmHg 71%
    13:00 +2°C° 0 mm 7 mps 755 mmHg 73%
    14:00 +2°C° 0 mm 7 mps 755 mmHg 76%
    15:00 +2°C° 0 mm 7 mps 755 mmHg 78%
    16:00 +2°C° 0 mm 6 mps 755 mmHg 80%
    17:00 +2°C° 0 mm 6 mps 755 mmHg 82%
    18:00 +1°C° 0 mm 5 mps 755 mmHg 84%
    19:00 +1°C° 0 mm 6 mps 755 mmHg 84%
    20:00 +1°C° 0 mm 6 mps 755 mmHg 83%
    21:00 +1°C° 0 mm 6 mps 755 mmHg 83%
    22:00 +1°C° 0 mm 6 mps 755 mmHg 84%
    23:00 +1°C° 0 mm 6 mps 756 mmHg 85%
    Show more